Temperature
20 19 19 19 20 21 22 23 24 25 26 26 26 26 25 23 22 20 19 20 19 18 18 18 18 18 18 18 18 18 18 18 18 18 18 18 18 18 18 18 18 18 18 18 18 18 18 18 18
20 19 20 20 21 22 22 23 24 25 26 26 26 26 24 23 21 20 19 19 19 18 18 18 18 18 18 18 18 18 18 18 17 17 17 17 17 17 17 17 18 17 18 18 18 18 18 18 18
20 20 20 21 22 22 22 24 25 26 26 26 26 25 24 23 21 20 19 19 19 18 18 18 18 18 18 18 18 18 17 17 17 17 17 17 17 17 17 17 17 17 17 17 17 18 18 18 18
20 20 21 22 23 24 24 25 26 26 26 26 26 24 23 22 21 20 20 20 19 18 18 18 18 18 18 18 17 17 17 17 17 17 17 17 17 17 17 17 17 17 17 17 17 17 17 17 18
20 21 22 23 24 25 25 26 27 26 26 26 25 23 22 21 20 20 20 20 19 18 18 18 18 18 18 17 17 17 17 16 16 16 17 17 17 17 17 17 17 17 17 17 17 17 17 17 18
20 22 22 22 24 25 26 26 26 26 26 26 25 23 21 21 20 20 20 20 19 19 19 19 18 18 18 17 17 17 17 16 16 16 16 16 17 16 16 16 16 16 16 16 16 17 17 17 17
21 21 22 23 23 24 26 26 26 25 26 26 25 23 21 21 20 21 20 20 20 19 19 18 18 18 18 17 17 17 17 16 16 16 16 16 16 16 16 16 16 16 16 16 16 16 17 17 17
21 22 23 23 23 23 25 26 26 25 25 25 25 23 21 21 21 20 20 20 20 20 19 19 18 18 18 18 17 17 17 16 16 16 16 16 16 16 16 16 16 16 16 16 16 16 16 17 17
22 22 22 22 23 24 25 26 26 25 25 25 24 23 22 21 21 20 20 20 20 20 20 19 19 18 18 18 18 17 17 17 16 16 16 16 16 16 16 16 16 16 16 16 16 16 16 16 17
23 22 22 24 24 24 25 26 26 26 25 24 23 22 21 21 21 21 21 21 20 20 20 20 20 19 19 19 18 17 17 17 17 16 16 16 16 16 16 16 16 16 16 16 16 16 16 16 17
24 23 24 25 25 25 25 25 26 25 24 24 23 22 22 21 21 22 22 21 21 21 20 20 20 20 19 19 18 18 17 17 17 17 16 16 16 16 16 16 16 16 16 16 15 16 16 16 16
24 24 25 25 24 25 25 25 26 25 25 25 24 23 22 22 22 22 22 22 21 21 20 20 20 20 19 19 18 18 18 17 17 17 16 16 16 16 16 16 16 16 16 16 15 16 16 16 16
24 24 25 25 25 25 25 25 25 25 25 25 24 23 23 23 22 23 22 22 21 21 20 20 20 20 19 19 19 18 18 18 17 17 16 16 16 16 16 16 16 16 15 15 15 16 16 16 16
24 24 25 25 25 25 25 25 26 25 25 25 24 24 23 23 23 23 23 22 22 21 21 20 20 20 19 19 19 18 18 18 17 17 16 16 16 16 16 15 15 15 15 15 15 15 15 16 16
24 24 25 25 25 25 25 25 26 25 25 25 25 24 24 24 23 23 23 23 22 22 21 20 20 19 19 19 18 18 18 17 17 16 16 16 16 16 15 15 15 15 15 15 15 15 15 15 15
24 24 23 25 25 25 24 22 25 26 26 25 25 25 24 24 24 24 23 23 22 22 21 20 20 19 19 18 18 18 17 17 16 16 16 16 16 15 15 15 15 15 15 15 15 15 15 15 15
23 23 23 24 25 26 24 23 25 26 26 25 25 25 24 24 24 24 23 23 23 22 21 21 20 19 19 18 18 17 17 17 16 16 15 15 15 15 15 15 15 15 14 14 14 14 15 15 15
23 23 23 24 25 25 24 24 25 26 26 26 26 25 25 25 24 24 24 23 22 22 21 21 20 19 19 18 18 17 17 17 16 16 15 15 15 14 15 14 14 14 14 14 14 14 14 15 15
25 24 24 24 26 25 24 24 25 26 26 26 26 25 25 25 24 24 23 23 22 22 21 21 20 19 19 18 18 17 17 17 16 16 15 15 15 14 14 14 14 14 14 14 14 14 14 15 15
24 24 23 25 26 26 25 25 25 26 26 26 26 26 25 25 24 24 23 23 22 22 21 21 20 20 19 18 18 17 17 17 16 16 15 15 15 14 14 14 14 14 14 14 14 14 14 14 15
24 24 24 25 26 26 25 24 25 26 26 26 26 26 25 25 24 23 23 23 22 22 21 21 20 20 19 18 18 17 17 17 16 16 16 15 15 14 14 14 14 14 14 14 14 14 14 14 14
24 25 25 26 25 24 25 22 24 25 25 25 25 25 25 25 24 23 23 22 22 21 21 21 20 20 19 19 18 17 17 17 16 16 16 15 15 15 14 14 14 14 14 14 14 14 14 14 14
24 26 26 26 25 25 25 24 24 25 24 24 25 25 24 24 24 23 23 22 22 21 21 20 20 20 19 19 18 18 17 17 16 16 16 16 15 15 15 14 14 14 14 14 14 14 14 14 14
26 26 26 26 25 24 25 24 24 25 25 25 25 24 24 23 23 22 22 22 21 21 20 20 20 19 19 19 18 18 17 17 17 16 16 16 16 15 15 15 14 14 14 14 14 14 14 14 14
26 25 23 23 23 24 26 25 24 25 26 25 25 24 23 23 22 22 21 21 21 20 20 20 19 19 19 19 18 18 17 17 17 17 16 16 16 16 15 15 15 14 14 14 14 14 14 14 14
25 25 23 22 22 24 26 24 24 25 25 25 24 24 23 22 22 21 21 20 20 20 20 19 19 19 19 18 18 18 18 17 17 17 17 16 16 16 16 15 15 15 14 14 14 14 14 14 14
25 24 24 23 23 25 25 24 25 25 25 25 24 23 23 22 21 21 20 20 20 19 19 19 19 19 19 18 18 18 18 17 17 17 17 16 16 16 16 15 15 15 15 14 14 14 14 14 14
25 25 24 23 23 24 24 24 23 24 24 24 24 23 22 22 21 20 20 20 19 19 19 19 19 19 18 18 18 18 17 17 17 17 17 16 16 16 16 16 15 15 15 15 14 14 14 14 14
25 25 25 25 25 25 24 24 26 25 24 24 23 23 22 21 20 20 19 19 19 19 19 19 19 18 18 18 18 18 17 17 17 17 17 16 16 16 16 16 16 15 15 15 15 15 14 14 14
27 26 26 25 26 26 25 23 26 25 25 24 23 22 21 20 20 19 19 19 19 19 19 19 18 18 18 18 17 17 17 17 17 17 16 16 16 16 16 16 16 16 15 15 15 15 14 14 14
Wind_Speed
7 9 6 2 2 2 2 3 5 6 7 8 9 11 14 13 9 9 4 8 13 14 15 13 12 12 11 11 10 10 10 9 9 8 8 7 7 6 6 6 6 6 6 6 6 6 6 6 6
7 6 4 2 2 1 4 5 8 8 6 5 9 14 15 13 13 9 6 8 13 14 15 14 12 12 11 11 10 10 10 9 8 8 7 7 6 6 5 5 6 6 6 5 5 5 5 5 5
8 6 3 2 2 3 5 5 7 7 4 6 11 13 10 9 11 7 8 10 13 15 16 14 13 12 11 11 11 10 10 9 9 8 8 7 6 6 6 6 5 6 6 5 4 4 4 4 4
4 3 3 2 2 6 6 5 6 7 6 7 10 10 10 11 10 11 11 12 14 15 16 14 13 12 11 11 10 10 9 9 9 8 8 7 6 6 6 5 5 6 6 6 5 4 4 4 5
3 3 3 1 3 7 5 6 6 7 7 11 14 12 12 14 14 13 10 11 13 14 15 14 13 12 11 11 10 10 9 9 8 7 7 6 5 5 5 5 5 6 6 6 6 5 5 5 5
2 3 2 1 5 6 6 5 7 8 8 10 14 13 9 12 11 10 11 10 12 13 14 15 14 13 12 11 10 9 8 7 6 5 4 4 3 2 2 3 4 5 6 6 6 5 5 5 5
2 3 2 1 4 4 6 5 7 6 8 8 10 11 9 11 9 9 10 9 9 9 11 13 14 13 12 11 9 7 6 4 3 2 1 2 3 3 2 0 2 4 5 6 6 6 5 5 6
3 3 3 2 4 4 4 5 7 7 7 6 7 9 9 11 9 9 8 8 7 7 8 8 11 13 13 12 10 8 6 4 3 3 4 6 8 8 7 3 1 2 4 5 5 6 6 6 7
4 2 2 3 3 4 3 5 5 5 7 9 11 13 15 14 11 8 7 7 6 7 6 6 6 7 10 12 11 11 9 7 6 7 8 9 7 4 7 4 4 2 4 5 6 7 8 8 9
3 0 0 2 3 3 3 4 5 4 7 11 13 15 16 13 11 9 8 8 7 6 5 6 6 5 4 4 8 6 7 6 5 2 1 3 4 5 3 3 4 5 7 8 9 10 10 10 9
3 1 1 3 4 3 3 2 3 5 5 9 13 15 14 12 10 8 7 6 6 6 5 5 5 5 4 3 3 2 1 2 1 4 3 3 4 5 3 0 3 5 7 4 4 8 7 5 4
3 1 2 4 3 2 2 2 4 6 6 9 13 15 13 11 9 7 7 7 7 7 6 5 3 4 5 5 1 2 2 2 2 5 7 4 2 2 2 2 3 3 3 2 3 4 4 4 4
4 2 2 2 2 1 1 2 3 6 9 11 13 13 13 11 9 7 8 8 8 7 7 5 4 5 5 4 1 2 3 3 4 5 5 4 2 3 3 2 2 3 5 3 3 3 4 4 4
3 3 3 3 3 2 2 3 4 6 9 11 12 11 11 10 10 8 8 8 9 7 7 6 5 4 3 3 2 4 2 2 4 4 5 5 4 2 3 4 3 3 4 4 3 4 4 3 3
4 5 5 4 4 3 1 3 5 7 8 9 10 10 11 10 9 9 8 8 8 8 8 7 5 4 5 6 5 3 2 5 4 4 7 7 6 4 3 4 4 3 5 5 4 5 4 4 3
6 6 5 5 5 4 2 0 2 7 9 8 9 9 8 9 10 9 8 7 7 7 9 8 5 5 6 6 4 3 4 5 3 5 7 10 10 8 3 4 4 4 4 3 3 3 4 4 4
7 7 7 7 8 6 5 3 4 6 7 6 7 9 10 9 9 9 9 7 7 7 8 8 6 5 6 5 3 3 4 2 2 5 6 9 10 10 5 3 3 5 3 4 5 4 4 4 4
10 9 8 8 9 7 6 6 5 6 7 6 7 8 8 10 9 8 8 8 7 7 6 8 8 6 6 3 2 3 3 2 3 4 5 5 6 7 5 3 4 5 4 4 4 4 4 3 3
8 9 8 8 10 8 6 6 5 4 5 5 6 7 8 9 8 9 8 8 8 6 5 6 8 6 5 2 1 2 2 1 3 3 4 3 4 5 3 3 4 3 3 4 5 4 5 4 3
5 8 9 9 9 8 9 7 6 5 4 3 4 6 6 9 8 7 8 8 7 6 5 6 7 7 7 3 2 2 2 1 3 1 1 2 4 6 6 5 4 3 3 4 5 4 4 4 3
7 7 10 10 9 8 9 8 6 8 6 6 5 5 6 8 9 8 7 6 7 6 4 4 6 7 7 5 3 3 3 1 0 0 1 2 2 3 4 4 4 4 3 3 4 4 5 4 4
5 7 10 12 11 7 8 6 7 9 7 7 6 6 7 6 7 7 7 7 6 5 3 4 6 6 6 5 3 2 1 1 1 1 1 1 2 1 1 3 3 4 3 3 4 4 4 4 4
4 8 9 9 7 6 8 6 7 9 8 7 7 7 7 7 7 7 6 6 5 5 4 3 6 6 6 5 5 1 0 1 1 1 1 1 1 1 1 1 3 3 2 3 3 3 4 3 3
7 8 6 4 4 5 8 6 6 6 8 9 8 8 7 7 7 7 7 6 6 6 5 4 4 5 5 4 4 4 2 1 1 1 1 1 1 1 1 0 2 2 2 3 3 2 2 2 2
8 7 4 3 3 4 8 6 6 7 8 9 10 9 8 6 7 7 7 5 5 5 4 3 4 3 4 4 3 4 4 3 2 1 1 1 2 1 1 1 1 1 2 2 2 3 2 1 1
9 6 2 3 5 5 7 7 9 9 9 10 10 10 9 8 7 7 6 5 5 4 3 2 3 3 3 4 4 3 3 3 1 1 1 2 2 1 1 0 1 1 1 2 1 3 3 2 1
6 5 3 2 4 4 7 10 11 10 10 10 10 9 9 8 7 7 6 5 5 4 3 2 2 2 2 2 3 3 2 1 1 1 2 2 2 1 0 1 2 1 1 2 2 2 3 3 2
4 3 5 3 3 4 10 12 10 13 11 10 9 9 8 8 8 7 6 5 5 4 3 2 2 1 1 1 3 2 2 2 1 2 2 3 3 2 1 3 3 3 3 3 2 2 2 2 2
7 6 4 4 5 3 6 5 10 13 12 11 10 10 9 8 7 6 5 5 5 5 4 3 2 2 1 1 1 2 2 2 2 3 3 3 4 4 3 3 3 3 3 3 2 2 2 3 3
6 7 7 3 2 0 4 5 9 11 11 12 11 10 9 8 7 6 6 6 5 4 4 3 3 2 2 2 2 2 2 2 3 3 3 4 5 4 4 3 4 4 3 2 2 3 3 3 3
Wind_Direction
265 254 249 252 251 229 78 78 79 56 62 53 52 69 68 55 61 92 129 107 109 110 110 101 95 93 90 88 85 80 76 73 71 68 65 60 54 49 44 39 35 31 28 28 28 26 20 20 20
276 273 270 241 260 113 87 81 80 73 76 79 71 74 75 70 83 99 107 101 107 105 101 97 95 90 87 85 82 80 76 73 70 66 60 56 50 42 35 30 25 21 18 16 17 16 11 7 8
265 260 268 255 288 79 93 87 96 92 86 86 79 67 61 79 91 104 118 112 102 100 97 97 94 90 86 83 81 79 75 71 68 63 58 54 46 40 34 28 19 10 4 2 0 359 356 349 349
264 267 252 255 39 87 105 113 109 97 78 76 85 74 65 70 97 118 128 118 108 105 104 103 99 94 88 84 81 79 75 70 66 61 55 50 44 39 31 21 12 3 356 350 345 336 330 326 326
259 263 263 248 91 86 91 101 94 89 82 80 87 90 84 84 105 121 121 111 111 111 113 113 107 101 94 89 83 79 75 70 65 58 50 41 36 32 24 14 7 360 354 350 345 333 318 309 309
281 267 284 36 95 101 98 81 82 88 89 92 101 101 97 106 109 116 115 111 111 115 118 123 122 117 109 100 91 84 77 72 65 53 39 23 11 4 3 8 8 2 355 348 338 329 314 298 296
266 286 285 70 101 81 84 85 83 84 86 77 98 106 116 116 116 111 104 101 105 118 128 136 141 135 127 119 111 103 95 89 83 68 347 301 281 268 265 320 19 2 351 343 335 323 312 299 286
275 289 309 39 91 81 71 82 82 84 80 76 81 112 127 128 124 112 116 116 116 112 118 132 143 143 147 142 141 145 151 163 187 219 253 268 268 249 239 221 140 336 325 319 316 310 298 289 276
278 282 341 45 89 99 95 94 89 94 93 80 70 97 124 133 130 128 130 123 119 118 127 130 130 135 151 154 154 174 181 196 212 221 241 264 274 244 218 151 156 245 278 280 281 283 282 277 265
232 254 323 84 86 107 109 102 120 114 106 100 98 108 125 139 145 151 150 143 141 141 136 129 126 133 125 107 144 178 172 181 205 172 234 302 346 334 341 134 207 239 257 265 262 270 274 265 251
233 206 82 77 71 77 98 98 110 109 106 120 126 131 140 148 154 154 146 133 129 120 104 105 115 121 117 108 103 87 103 144 88 41 15 358 354 338 357 213 207 240 255 272 286 258 260 256 252
231 162 107 89 71 66 78 86 90 98 110 114 128 139 148 155 155 157 143 130 121 107 97 72 58 94 84 74 68 185 95 56 64 31 13 24 6 335 7 339 25 334 340 352 322 299 305 320 306
219 184 127 119 122 131 117 110 111 113 122 125 133 142 151 153 156 153 135 128 122 122 120 95 60 59 83 95 278 71 79 37 68 50 350 20 8 353 3 337 13 352 358 351 331 315 334 335 326
189 181 183 181 174 189 170 165 161 134 139 140 142 149 153 152 159 153 144 144 136 138 125 116 102 85 94 111 62 61 63 130 65 51 349 20 25 2 9 358 360 11 352 345 331 327 340 320 314
181 191 190 193 195 184 197 183 167 151 152 152 151 152 154 159 161 155 149 147 135 132 119 109 102 90 69 60 39 61 30 51 48 45 5 18 27 11 32 9 357 356 348 348 350 342 335 322 321
195 204 197 189 197 177 150 188 171 164 160 159 151 150 157 160 164 156 146 139 128 130 123 121 108 95 82 73 49 35 53 44 32 41 26 14 16 12 33 13 348 347 354 354 337 350 343 336 336
201 204 190 175 195 176 160 168 188 178 154 159 159 156 162 167 165 152 145 136 127 118 121 128 114 102 93 93 121 68 67 68 35 50 49 20 1 0 22 359 331 355 2 357 344 8 343 332 334
194 197 182 172 180 180 162 161 170 162 157 166 164 159 164 163 159 147 139 132 119 116 124 120 114 106 102 90 92 89 69 39 56 56 59 24 350 1 5 338 8 8 359 352 353 357 339 323 310
197 187 175 166 172 173 146 145 142 147 153 159 152 154 166 159 149 142 137 134 131 130 134 131 130 125 113 100 77 79 73 38 70 66 71 354 356 360 356 359 359 360 354 358 359 352 342 332 335
215 176 170 161 170 158 144 138 131 141 127 116 124 140 147 138 135 140 143 147 143 144 167 148 131 127 123 116 97 115 95 43 81 37 126 35 28 14 2 6 353 3 357 9 354 352 350 339 351
187 175 168 159 163 147 131 125 142 128 103 86 72 91 102 123 135 142 141 131 133 144 168 141 128 127 120 123 85 61 66 337 62 207 103 70 49 31 4 347 347 348 9 16 352 1 357 340 336
157 167 181 172 163 156 147 132 146 129 113 103 86 78 90 102 111 118 122 128 141 142 147 136 125 121 121 122 112 118 127 4 28 31 117 184 160 110 29 335 340 345 5 6 359 21 349 351 342
169 179 190 177 170 167 161 143 143 134 121 106 96 86 81 86 93 98 105 118 117 116 110 95 112 118 124 131 138 168 243 321 20 18 47 308 136 142 152 356 327 333 356 4 9 12 354 353 353
172 184 179 190 195 185 180 151 138 128 123 117 109 96 87 88 91 87 85 92 95 95 93 87 103 115 127 146 162 185 207 235 248 261 290 298 254 206 153 139 313 327 360 8 4 350 336 340 338
195 187 168 179 199 191 176 134 118 115 113 112 109 102 91 85 92 93 90 93 97 101 106 119 132 142 149 171 208 201 203 233 240 243 208 260 290 243 154 78 306 344 13 350 345 323 305 304 328
206 213 197 185 188 181 166 122 121 122 113 111 108 105 101 89 85 91 97 97 100 104 108 124 136 163 176 192 221 233 211 215 234 176 278 245 252 270 142 180 295 352 337 324 336 323 319 338 342
204 201 247 266 245 192 136 118 131 139 131 119 109 103 98 93 93 91 92 97 104 109 115 124 132 176 195 209 231 252 260 230 249 254 269 284 272 261 203 246 248 225 223 301 325 304 326 342 348
271 234 212 215 214 177 147 154 159 156 144 131 119 106 97 92 90 89 87 85 87 93 98 106 106 122 147 219 242 245 252 250 230 269 279 294 295 287 263 258 252 226 208 220 226 283 306 312 291
203 225 232 223 239 193 155 126 146 149 141 132 119 109 101 91 87 92 89 85 84 89 86 82 88 69 42 339 283 289 268 262 244 240 258 264 270 262 243 240 262 266 236 221 194 228 265 284 293
222 223 231 245 251 217 117 105 123 130 126 122 115 109 102 99 91 85 82 80 73 74 75 56 65 72 49 5 337 311 303 275 270 252 241 252 263 273 271 253 246 262 263 248 212 221 238 253 273
Height
1495 1495 1495 1496 1497 1497 1497 1491 1485 1484 1484 1485 1485 1486 1491 1495 1501 1513 1514 1513 1513 1513 1513 1514 1515 1516 1517 1517 1518 1518 1519 1520 1520 1521 1521 1521 1522 1522 1522 1523 1523 1523 1523 1523 1523 1524 1524 1524 1524
1494 1495 1497 1496 1497 1501 1499 1489 1488 1487 1487 1487 1487 1489 1493 1500 1505 1510 1513 1514 1515 1515 1515 1515 1516 1517 1517 1518 1518 1519 1520 1520 1520 1521 1521 1521 1521 1522 1522 1522 1522 1522 1523 1523 1523 1523 1523 1524 1524
1495 1496 1497 1495 1495 1498 1498 1489 1487 1487 1487 1487 1489 1493 1498 1504 1508 1511 1514 1516 1516 1516 1516 1517 1517 1518 1518 1518 1519 1519 1520 1520 1520 1521 1521 1521 1521 1521 1521 1521 1522 1522 1522 1522 1522 1522 1523 1523 1523
1496 1497 1496 1495 1495 1490 1489 1487 1486 1487 1488 1489 1491 1498 1504 1507 1509 1512 1515 1517 1517 1517 1517 1518 1518 1519 1519 1519 1519 1520 1520 1520 1520 1520 1521 1521 1521 1521 1520 1521 1521 1521 1521 1521 1521 1521 1522 1522 1522
1497 1497 1496 1496 1492 1487 1485 1486 1486 1488 1489 1491 1495 1503 1508 1511 1512 1514 1516 1518 1518 1518 1519 1519 1519 1520 1520 1520 1520 1520 1520 1520 1520 1520 1520 1520 1520 1520 1520 1520 1520 1520 1520 1520 1520 1520 1520 1520 1521
1498 1495 1499 1500 1493 1487 1487 1488 1488 1490 1492 1494 1497 1504 1510 1513 1514 1516 1518 1519 1520 1520 1520 1521 1521 1521 1521 1521 1521 1521 1521 1521 1521 1521 1521 1520 1520 1520 1520 1519 1519 1519 1519 1519 1518 1518 1519 1519 1519
1499 1497 1498 1496 1495 1492 1489 1489 1491 1493 1493 1495 1498 1504 1511 1514 1516 1517 1519 1520 1521 1522 1522 1522 1522 1522 1522 1522 1522 1522 1522 1522 1521 1521 1521 1521 1520 1520 1520 1519 1519 1518 1518 1517 1517 1517 1517 1518 1518
1497 1497 1496 1496 1497 1496 1491 1491 1493 1495 1496 1498 1499 1504 1511 1515 1517 1518 1520 1521 1523 1524 1524 1524 1524 1523 1523 1523 1523 1523 1523 1523 1522 1522 1522 1521 1520 1520 1520 1519 1519 1518 1517 1516 1516 1516 1516 1517 1517
1496 1499 1502 1499 1498 1496 1493 1493 1495 1496 1498 1500 1502 1505 1510 1514 1517 1519 1521 1523 1524 1525 1525 1526 1526 1526 1525 1524 1524 1524 1523 1523 1523 1522 1522 1521 1521 1521 1521 1520 1519 1518 1517 1516 1516 1515 1515 1516 1516
1495 1501 1499 1494 1493 1494 1494 1494 1495 1497 1499 1502 1505 1509 1512 1515 1517 1519 1521 1522 1524 1525 1526 1527 1527 1527 1528 1528 1526 1525 1525 1524 1524 1523 1523 1522 1522 1522 1522 1520 1519 1518 1517 1516 1515 1515 1515 1515 1515
1493 1495 1493 1492 1494 1494 1495 1495 1496 1498 1501 1502 1506 1510 1513 1515 1518 1519 1521 1523 1525 1526 1527 1528 1528 1528 1528 1528 1528 1527 1527 1526 1525 1525 1524 1523 1522 1521 1521 1520 1519 1518 1517 1517 1516 1515 1515 1515 1515
1493 1492 1493 1494 1495 1496 1496 1496 1497 1498 1502 1503 1506 1509 1513 1515 1518 1519 1521 1523 1525 1527 1528 1529 1529 1529 1529 1528 1528 1528 1527 1527 1526 1525 1524 1523 1522 1521 1521 1520 1519 1519 1518 1517 1516 1515 1515 1515 1515
1493 1493 1494 1495 1496 1497 1497 1497 1498 1499 1502 1504 1507 1510 1513 1515 1517 1519 1521 1524 1525 1527 1528 1529 1530 1530 1529 1529 1528 1529 1528 1527 1526 1525 1524 1524 1522 1522 1521 1520 1519 1518 1517 1516 1515 1515 1514 1514 1514
1491 1493 1494 1495 1496 1497 1497 1497 1498 1500 1502 1504 1507 1510 1513 1515 1517 1519 1521 1523 1525 1527 1528 1529 1530 1530 1530 1529 1529 1529 1528 1528 1526 1525 1525 1524 1523 1522 1521 1520 1519 1518 1517 1516 1515 1514 1514 1513 1513
1491 1493 1494 1494 1495 1495 1497 1499 1498 1500 1501 1503 1506 1509 1512 1514 1517 1519 1521 1523 1525 1527 1528 1529 1530 1530 1530 1530 1529 1529 1529 1528 1527 1526 1525 1524 1523 1522 1520 1519 1519 1518 1517 1516 1515 1514 1513 1513 1512
1491 1495 1500 1494 1494 1495 1501 1508 1498 1499 1500 1502 1504 1508 1511 1514 1516 1518 1521 1523 1525 1527 1527 1529 1530 1530 1530 1530 1529 1529 1529 1528 1527 1526 1525 1524 1523 1522 1520 1519 1518 1517 1516 1515 1515 1513 1512 1512 1512
1494 1500 1500 1496 1492 1493 1499 1506 1498 1498 1499 1501 1503 1506 1509 1512 1515 1517 1520 1522 1525 1527 1528 1528 1529 1530 1530 1530 1529 1529 1529 1528 1527 1526 1524 1523 1522 1522 1521 1519 1518 1517 1516 1515 1514 1513 1512 1511 1511
1496 1495 1497 1496 1491 1492 1497 1500 1497 1497 1498 1500 1502 1504 1507 1510 1514 1517 1519 1522 1524 1526 1528 1528 1529 1530 1530 1530 1530 1529 1529 1528 1527 1526 1524 1523 1522 1522 1521 1520 1518 1517 1516 1515 1514 1513 1512 1511 1510
1483 1489 1494 1491 1487 1491 1496 1498 1496 1497 1498 1499 1501 1503 1506 1509 1513 1516 1518 1521 1524 1526 1527 1528 1529 1529 1529 1529 1530 1529 1529 1528 1527 1526 1525 1523 1523 1522 1521 1520 1518 1517 1516 1515 1514 1512 1511 1511 1510
1484 1490 1494 1489 1485 1489 1496 1498 1497 1497 1499 1499 1501 1503 1505 1508 1512 1515 1518 1520 1523 1525 1527 1528 1528 1529 1529 1529 1530 1529 1529 1528 1527 1526 1525 1524 1523 1522 1521 1520 1519 1518 1516 1515 1514 1513 1512 1511 1510
1486 1489 1490 1490 1486 1488 1496 1504 1501 1498 1500 1502 1503 1504 1506 1509 1512 1515 1518 1520 1522 1524 1526 1527 1528 1528 1529 1529 1529 1529 1529 1528 1527 1526 1525 1524 1523 1522 1520 1520 1519 1518 1517 1516 1514 1513 1512 1511 1511
1489 1482 1484 1485 1491 1499 1499 1519 1506 1500 1502 1503 1505 1506 1508 1510 1513 1515 1517 1520 1522 1524 1525 1527 1527 1528 1528 1528 1529 1529 1528 1528 1528 1527 1526 1525 1523 1522 1521 1520 1519 1518 1517 1516 1515 1514 1513 1512 1511
1484 1479 1481 1482 1490 1498 1498 1510 1509 1500 1506 1506 1507 1509 1510 1512 1514 1516 1518 1520 1521 1523 1525 1526 1527 1527 1527 1528 1528 1528 1528 1528 1528 1527 1526 1525 1524 1522 1521 1520 1519 1518 1517 1516 1515 1514 1513 1512 1512
1479 1480 1481 1485 1492 1510 1501 1508 1514 1504 1505 1506 1508 1510 1512 1514 1515 1517 1518 1520 1521 1522 1524 1525 1526 1526 1527 1527 1527 1528 1528 1527 1527 1526 1526 1525 1524 1523 1522 1520 1519 1519 1518 1517 1515 1514 1513 1512 1512
1480 1489 1504 1512 1513 1510 1492 1502 1511 1502 1501 1504 1508 1511 1513 1515 1516 1517 1518 1520 1521 1522 1523 1524 1525 1525 1526 1526 1527 1527 1527 1527 1527 1526 1525 1524 1524 1523 1522 1521 1520 1519 1518 1517 1515 1514 1514 1513 1512
1482 1487 1506 1520 1518 1506 1491 1504 1507 1500 1502 1505 1508 1512 1514 1516 1517 1518 1519 1520 1521 1521 1522 1523 1524 1524 1525 1525 1526 1526 1527 1526 1526 1525 1525 1524 1523 1523 1521 1520 1519 1518 1517 1516 1515 1514 1514 1513 1512
1484 1490 1490 1501 1503 1502 1499 1503 1502 1499 1502 1506 1509 1512 1515 1517 1518 1519 1520 1521 1521 1521 1522 1523 1523 1524 1524 1524 1525 1525 1526 1525 1525 1524 1524 1524 1523 1522 1521 1520 1519 1518 1517 1516 1515 1514 1513 1512 1512
1480 1481 1488 1499 1508 1509 1505 1506 1507 1503 1504 1506 1509 1513 1515 1517 1519 1520 1521 1521 1521 1521 1522 1522 1523 1523 1523 1523 1524 1524 1524 1524 1524 1523 1523 1522 1522 1521 1520 1519 1518 1517 1516 1515 1514 1513 1513 1512 1511
1481 1483 1483 1488 1488 1497 1509 1507 1488 1495 1499 1504 1509 1513 1516 1518 1519 1520 1521 1521 1522 1522 1522 1522 1522 1522 1522 1522 1522 1523 1523 1523 1522 1522 1521 1521 1520 1519 1519 1518 1517 1517 1516 1515 1514 1513 1512 1511 1511
1470 1473 1476 1488 1486 1483 1497 1509 1486 1492 1498 1503 1509 1513 1516 1518 1520 1520 1521 1522 1522 1522 1522 1522 1522 1522 1521 1521 1521 1521 1521 1521 1521 1520 1520 1519 1518 1518 1518 1517 1516 1515 1515 1514 1513 1512 1511 1510 1510